Location: Al Mulaqqa?ah
(24.1833°N, 32.8833°E)
Time: 13:43:44
(UTC+00:00)

Palapa 6 Rocket - Pass Details

Date: 26 September 2021
Orbit: 485 x 1215 km, 22.7° (Epoch: 23 October)

Event Time Altitude Azimuth Distance (km) Brightness Sun altitude
Rises 17:34:42 0° 270° (W) 3,572 8.2 -26.7°
Reaches altitude 10° 17:37:10 10° 269° (W) 2,729 7.3 -27.3°
Maximum altitude 17:44:01 79° 184° (S) 1,125 4.1 -28.8°
Enters shadow 17:44:49 71° 128° (SE) 1,176 4.1 -29.0°
